Preston, Minnesota, United States (55965)
Lat: 43.67N, Lon: 92.08W
Wx Zone: MNZ095
Local Info
Past Weather Observations for Tuesday, July 22, 2014

NOTE: This archive is for the closest National Weather Service station to Preston. Information may differ from the station used for current weather conditions.

Click here for Long-term Archive

Time Weather Temperature Dewpoint Humidity Pressure Winds Precip Visibility
23:51
Clear
66°F / 19°C 63°F / 17°C 88% 30.15 in
(1021 mb)
N 6.9 mph
(N 11 kph)
- 10SM
23:31
Clear
66°F / 19°C 63°F / 17°C 88% 30.15 in
(1021 mb)
N 8.1 mph
(N 13 kph)
- 10SM
23:11
Clear
66°F / 19°C 64°F / 18°C 94% 30.15 in
(1021 mb)
NNW 6.9 mph
(NNW 11 kph)
- 10SM
22:51
Clear
66°F / 19°C 64°F / 18°C 94% 30.15 in
(1021 mb)
N 8.1 mph
(N 13 kph)
- 10SM
22:31
Clear
66°F / 19°C 64°F / 18°C 94% 30.12 in
(1020 mb)
NNW 6.9 mph
(NNW 11 kph)
- 10SM
22:11
Clear
66°F / 19°C 64°F / 18°C 94% 30.12 in
(1020 mb)
N 5.8 mph
(N 9 kph)
- 10SM
21:51
Clear
66°F / 19°C 64°F / 18°C 94% 30.12 in
(1020 mb)
N 5.8 mph
(N 9 kph)
- 10SM
21:31
Clear
68°F / 20°C 64°F / 18°C 88% 30.12 in
(1020 mb)
N 5.8 mph
(N 9 kph)
- 10SM
21:11
Clear
68°F / 20°C 66°F / 19°C 94% 30.12 in
(1020 mb)
N 5.8 mph
(N 9 kph)
- 10SM
20:51
Clear
68°F / 20°C 66°F / 19°C 94% 30.12 in
(1020 mb)
N 5.8 mph
(N 9 kph)
- 10SM
20:31
Clear
70°F / 21°C 66°F / 19°C 88% 30.09 in
(1019 mb)
N 6.9 mph
(N 11 kph)
- 10SM
20:11
Clear
72°F / 22°C 66°F / 19°C 83% 30.09 in
(1019 mb)
N 5.8 mph
(N 9 kph)
- 10SM
19:51
Clear
72°F / 22°C 68°F / 20°C 88% 30.09 in
(1019 mb)
N 9.2 mph
(N 15 kph)
- 10SM
19:31
Clear
73°F / 23°C 68°F / 20°C 83% 30.09 in
(1019 mb)
N 9.2 mph
(N 15 kph)
- 10SM
19:11
Clear
75°F / 24°C 68°F / 20°C 78% 30.09 in
(1019 mb)
N 8.1 mph
(N 13 kph)
- 10SM
18:51
Clear
75°F / 24°C 68°F / 20°C 78% 30.09 in
(1019 mb)
NNW 10.4 mph
(NNW 17 kph)
- 10SM
18:31
Clear
77°F / 25°C 68°F / 20°C 74% 30.09 in
(1019 mb)
NNW 13.8 mph
(NNW 22 kph)
- 10SM
18:11
Clear
77°F / 25°C 68°F / 20°C 74% 30.09 in
(1019 mb)
NNW 13.8 mph
(NNW 22 kph)
- 10SM
17:51
Clear
77°F / 25°C 68°F / 20°C 74% 30.06 in
(1018 mb)
NNW 12.7 mph
(NNW 20 kph)
- 10SM
17:31
Clear
79°F / 26°C 70°F / 21°C 74% 30.06 in
(1018 mb)
NNW 15 mph
(NNW 24 kph)
- 10SM
17:11
Clear
79°F / 26°C 70°F / 21°C 74% 30.06 in
(1018 mb)
NNW 15 mph
(NNW 24 kph)
- 10SM
16:51
Clear
79°F / 26°C 70°F / 21°C 74% 30.06 in
(1018 mb)
NNW 13.8 mph
(NNW 22 kph)
- 10SM
16:31
Clear
81°F / 27°C 70°F / 21°C 70% 30.06 in
(1018 mb)
NNW 15 mph
(NNW 24 kph)
- 10SM
16:11
Clear
81°F / 27°C 72°F / 22°C 74% 30.06 in
(1018 mb)
NNW 13.8 mph
(NNW 22 kph)
- 10SM
15:51
Clear
81°F / 27°C 72°F / 22°C 74% 30.04 in
(1017 mb)
NNW 13.8 mph
(NNW 22 kph)
- 10SM
15:31
Clear
81°F / 27°C 73°F / 23°C 79% 30.04 in
(1017 mb)
NW 12.7 mph
(NW 20 kph)
- 10SM
15:11
Clear
81°F / 27°C 72°F / 22°C 74% 30.04 in
(1017 mb)
NW 12.7 mph
(NW 20 kph)
- 10SM
14:51
Clear
81°F / 27°C 72°F / 22°C 74% 30.04 in
(1017 mb)
NW 11.5 mph
(NW 19 kph)
- 10SM
14:31
Clear
81°F / 27°C 73°F / 23°C 79% 30.04 in
(1017 mb)
NNW 11.5 mph
(NNW 19 kph)
- 10SM
14:11
Partly Cloudy
81°F / 27°C 72°F / 22°C 74% 30.04 in
(1017 mb)
NW 12.7 mph
(NW 20 kph)
- 10SM
13:51
Partly Cloudy
81°F / 27°C 73°F / 23°C 79% 30.04 in
(1017 mb)
NW 10.4 mph
(NW 17 kph)
- 10SM
13:31
Clear
81°F / 27°C 72°F / 22°C 74% 30.04 in
(1017 mb)
NNW 11.5 mph
(NNW 19 kph)
- 10SM
13:11
Partly Cloudy
82°F / 28°C 73°F / 23°C 74% 30.04 in
(1017 mb)
NW 12.7 mph
(NW 20 kph)
- 10SM
12:51
Partly Cloudy
81°F / 27°C 73°F / 23°C 79% 30.04 in
(1017 mb)
NW 8.1 mph
(NW 13 kph)
- 10SM
12:31
Partly Cloudy
82°F / 28°C 73°F / 23°C 74% 30.01 in
(1016 mb)
NNW 10.4 mph
(NNW 17 kph)
- 10SM
12:11
Clear
81°F / 27°C 73°F / 23°C 79% 30.01 in
(1016 mb)
N 6.9 mph
(N 11 kph)
- 10SM
11:51
Clear
82°F / 28°C 73°F / 23°C 74% 30.01 in
(1016 mb)
N 9.2 mph
(N 15 kph)
- 10SM
11:31
Clear
81°F / 27°C 73°F / 23°C 79% 30.01 in
(1016 mb)
NNW 8.1 mph
(NNW 13 kph)
- 10SM
11:11
Clear
81°F / 27°C 73°F / 23°C 79% 30.01 in
(1016 mb)
NW 9.2 mph
(NW 15 kph)
- 10SM
10:51
Clear
81°F / 27°C 73°F / 23°C 79% 29.98 in
(1015 mb)
NNW 9.2 mph
(NNW 15 kph)
- 10SM
10:31
Clear
81°F / 27°C 72°F / 22°C 74% 29.95 in
(1014 mb)
NNW 10.4 mph
(NNW 17 kph)
- 10SM
10:10
Clear
82°F / 28°C 75°F / 24°C 79% 29.95 in
(1014 mb)
NW 15 mph
(NW 24 kph)
- 10SM
09:51
Clear
82°F / 28°C 73°F / 23°C 74% 29.95 in
(1014 mb)
N 9.2 mph
(N 15 kph)
- 10SM
09:31
Clear
82°F / 28°C 72°F / 22°C 70% 29.95 in
(1014 mb)
NNW 8.1 mph
(NNW 13 kph)
- 10SM
09:11
Clear
81°F / 27°C 73°F / 23°C 79% 29.95 in
(1014 mb)
NNW 5.8 mph
(NNW 9 kph)
- 10SM
08:51
Clear
81°F / 27°C 75°F / 24°C 84% 29.95 in
(1014 mb)
NW 12.7 mph
(NW 20 kph)
- 10SM
08:31
Partly Cloudy
81°F / 27°C 77°F / 25°C 89% 29.95 in
(1014 mb)
NW 11.5 mph
(NW 19 kph)
- 7SM
08:11
Mostly Cloudy
79°F / 26°C 77°F / 25°C 94% 29.95 in
(1014 mb)
NW 15 mph
(NW 24 kph)
- 7SM
07:51
Mostly Cloudy
79°F / 26°C 77°F / 25°C 94% 29.98 in
(1015 mb)
NW 12.7 mph
(NW 20 kph)
- 7SM
07:31
Mostly Cloudy
Fog And Mist
77°F / 25°C 77°F / 25°C 100% 29.98 in
(1015 mb)
W 10.4 mph
(W 17 kph)
- 5SM
07:11
Overcast
Fog And Mist
75°F / 24°C 75°F / 24°C 100% 29.98 in
(1015 mb)
SSW 8.1 mph
(SSW 13 kph)
- 5SM
06:51
Overcast
Fog And Mist
75°F / 24°C 75°F / 24°C 100% 29.95 in
(1014 mb)
SW 10.4 mph
(SW 17 kph)
- 5SM
06:31
Overcast
Fog And Mist
73°F / 23°C 73°F / 23°C 100% 29.92 in
(1013 mb)
S 10.4 mph
(S 17 kph)
- 5SM
06:11
Mostly Cloudy
73°F / 23°C 73°F / 23°C 100% 29.95 in
(1014 mb)
SW 8.1 mph
(SW 13 kph)
- 7SM
05:51
Partly Cloudy
73°F / 23°C 73°F / 23°C 100% 29.95 in
(1014 mb)
SW 11.5 mph
(SW 19 kph)
- 7SM
05:31
Partly Cloudy
Fog And Mist
73°F / 23°C 73°F / 23°C 100% 29.92 in
(1013 mb)
SW 9.2 mph
(SW 15 kph)
- 5SM
05:11
Clear
Fog And Mist
73°F / 23°C 73°F / 23°C 100% 29.92 in
(1013 mb)
SSE 11.5 mph
(SSE 19 kph)
- 5SM
04:51
Clear
Fog And Mist
73°F / 23°C 73°F / 23°C 100% 29.89 in
(1012 mb)
S 11.5 mph
(S 19 kph)
- 5SM
04:31
Clear
73°F / 23°C 73°F / 23°C 100% 29.89 in
(1012 mb)
S 11.5 mph
(S 19 kph)
- 7SM
04:11
Clear
73°F / 23°C 73°F / 23°C 100% 29.92 in
(1013 mb)
SSE 12.7 mph
(SSE 20 kph)
- 7SM
03:51
Clear
75°F / 24°C 73°F / 23°C 94% 29.89 in
(1012 mb)
S 11.5 mph
(S 19 kph)
- 7SM
03:31
Clear
75°F / 24°C 75°F / 24°C 100% 29.89 in
(1012 mb)
S 13.8 mph
(S 22 kph)
- 10SM
03:10
Partly Cloudy
75°F / 24°C 75°F / 24°C 100% 29.89 in
(1012 mb)
S 12.7 mph
(S 20 kph)
- 7SM
02:51
Partly Cloudy
75°F / 24°C 75°F / 24°C 100% 29.92 in
(1013 mb)
SSE 9.2 mph
(SSE 15 kph)
- 10SM
02:31
Clear
75°F / 24°C 75°F / 24°C 100% 29.92 in
(1013 mb)
S 13.8 mph
(S 22 kph)
- 10SM
02:11
Clear
Thunder Storms
75°F / 24°C 75°F / 24°C 100% 29.92 in
(1013 mb)
S 12.7 mph
(S 20 kph)
- 10SM
01:51
Clear
77°F / 25°C 75°F / 24°C 94% 29.92 in
(1013 mb)
S 13.8 mph
(S 22 kph)
- 10SM
01:31
Clear
75°F / 24°C 75°F / 24°C 100% 29.92 in
(1013 mb)
S 12.7 mph
(S 20 kph)
- 10SM
01:11
Clear
75°F / 24°C 75°F / 24°C 100% 29.92 in
(1013 mb)
S 11.5 mph
(S 19 kph)
- 10SM
00:51
Partly Cloudy
75°F / 24°C 73°F / 23°C 94% 29.92 in
(1013 mb)
S 12.7 mph
(S 20 kph)
- 10SM
00:31
Mostly Cloudy
75°F / 24°C 73°F / 23°C 94% 29.92 in
(1013 mb)
S 11.5 mph
(S 19 kph)
- 10SM
00:11
Partly Cloudy
75°F / 24°C 73°F / 23°C 94% 29.92 in
(1013 mb)
S 10.4 mph
(S 17 kph)
- 10SM
Time Weather Temperature Dewpoint Humidity Pressure Winds Precip Visibility


Weather for websites

WeatherForYou.com, LLC is not responsible for any damages or problems caused by this service. Current weather conditions are obtained from the closest station including government and personal stations which may have varying degrees of accuracy. Weather forecasts are derived from the NOAA NDFD. Like all things, this site belongs to Jesus Christ... He just trusts me to maintain it. If you have any questions or comments email webmaster@weatherforyou.com

Copyright © 2014, WeatherForYou.com LLC. All rights reserved.